NKS1541 KLGA-KDTW

Flight info

Callsign NKS1541
Flight time 1h 21m
Altitude 36000
Route GAYEL J95 CFB TRAAD JACCI FERRL2
Aircraft A21N/M-SDE2E3FGHIRWXY/LB1

Departure

Time 2026-05-07 22:21
Airport LaGuardia Airport (KLGA)

Arrival

Time 2026-05-07 23:42
Airport Detroit Metropolitan Wayne County Airport (KDTW)
Time Latitude Longitude Altitude Speed Heading
2026-05-07 21:53 40.77329 -73.88424 13 ft 0 kts 20°
2026-05-07 22:11 40.77327 -73.88425 13 ft 1 kts 20°
2026-05-07 22:12 40.77313 -73.88432 14 ft 2 kts 20°
2026-05-07 22:12 40.77299 -73.88439 15 ft 2 kts 20°
2026-05-07 22:12 40.77285 -73.88446 16 ft 2 kts 20°
2026-05-07 22:12 40.77272 -73.88455 16 ft 2 kts 54°
2026-05-07 22:13 40.77266 -73.88470 16 ft 0 kts 81°
2026-05-07 22:13 40.77266 -73.88479 16 ft 1 kts 85°
2026-05-07 22:13 40.77266 -73.88480 16 ft 0 kts 85°
2026-05-07 22:15 40.77266 -73.88479 16 ft 0 kts 85°
2026-05-07 22:15 40.77267 -73.88468 16 ft 2 kts 85°
2026-05-07 22:15 40.77269 -73.88436 16 ft 4 kts 83°
2026-05-07 22:16 40.77274 -73.88382 16 ft 7 kts 83°
2026-05-07 22:16 40.77276 -73.88308 16 ft 6 kts 103°
2026-05-07 22:16 40.77246 -73.88309 16 ft 6 kts 201°
2026-05-07 22:16 40.77197 -73.88339 16 ft 8 kts 212°
2026-05-07 22:17 40.77139 -73.88385 16 ft 10 kts 206°
2026-05-07 22:17 40.77090 -73.88420 16 ft 0 kts 211°
2026-05-07 22:17 40.77082 -73.88427 16 ft 2 kts 211°
2026-05-07 22:17 40.77073 -73.88433 16 ft 0 kts 208°
2026-05-07 22:18 40.77072 -73.88434 16 ft 0 kts 207°
2026-05-07 22:18 40.77057 -73.88443 16 ft 3 kts 204°
2026-05-07 22:18 40.77026 -73.88453 16 ft 5 kts 186°
2026-05-07 22:19 40.76980 -73.88452 16 ft 7 kts 167°
2026-05-07 22:19 40.76949 -73.88408 17 ft 6 kts 84°
2026-05-07 22:19 40.76975 -73.88363 16 ft 0 kts 33°
2026-05-07 22:20 40.77008 -73.88335 16 ft 28 kts 32°
2026-05-07 22:20 40.77445 -73.87979 16 ft 114 kts 34°
2026-05-07 22:20 40.78302 -73.87246 151 ft 166 kts 29°
2026-05-07 22:21 40.79256 -73.86436 936 ft 167 kts 28°
2026-05-07 22:21 40.80236 -73.85626 1725 ft 167 kts 25°
2026-05-07 22:21 40.81355 -73.85126 2148 ft 179 kts
2026-05-07 22:21 40.82636 -73.85261 2580 ft 192 kts 331°
2026-05-07 22:22 40.83538 -73.86564 3088 ft 205 kts 289°
2026-05-07 22:22 40.83740 -73.88487 3641 ft 219 kts 278°
2026-05-07 22:22 40.84211 -73.90455 4102 ft 234 kts 305°
2026-05-07 22:22 40.85455 -73.91900 4611 ft 248 kts 333°
2026-05-07 22:23 40.87090 -73.92781 5261 ft 258 kts 337°
2026-05-07 22:23 40.88768 -73.93686 6012 ft 263 kts 334°
2026-05-07 22:23 40.90375 -73.94683 6755 ft 267 kts 331°
2026-05-07 22:23 40.92029 -73.95822 7573 ft 268 kts 328°
2026-05-07 22:24 40.93655 -73.97025 8393 ft 269 kts 326°
2026-05-07 22:24 40.95263 -73.98263 9215 ft 269 kts 324°
2026-05-07 22:24 40.96887 -73.99550 9993 ft 270 kts 323°
2026-05-07 22:24 40.98507 -74.00855 10599 ft 277 kts 322°
2026-05-07 22:25 41.00196 -74.02237 10927 ft 293 kts 322°
2026-05-07 22:25 41.01976 -74.03702 11266 ft 308 kts 322°
2026-05-07 22:25 41.03825 -74.05217 11848 ft 314 kts 322°
2026-05-07 22:25 41.05705 -74.06752 12513 ft 317 kts 321°
2026-05-07 22:26 41.07584 -74.08292 13157 ft 320 kts 321°
2026-05-07 22:26 41.09501 -74.09866 13796 ft 323 kts 320°
2026-05-07 22:26 41.11410 -74.11433 14437 ft 326 kts 320°
2026-05-07 22:26 41.13351 -74.13022 15023 ft 331 kts 320°
2026-05-07 22:27 41.15319 -74.14637 15561 ft 335 kts 320°
2026-05-07 22:27 41.17316 -74.16282 16130 ft 338 kts 319°
2026-05-07 22:27 41.19338 -74.17947 16663 ft 341 kts 319°
2026-05-07 22:27 41.21379 -74.19634 17157 ft 346 kts 318°
2026-05-07 22:28 41.23446 -74.21348 17677 ft 349 kts 318°
2026-05-07 22:28 41.25524 -74.23070 18183 ft 352 kts 318°
2026-05-07 22:28 41.27638 -74.24827 18667 ft 356 kts 317°
2026-05-07 22:28 41.29726 -74.26564 19164 ft 358 kts 318°
2026-05-07 22:29 41.31846 -74.28329 19648 ft 360 kts 317°
2026-05-07 22:29 41.33983 -74.30107 20136 ft 362 kts 317°
2026-05-07 22:29 41.36019 -74.31801 20580 ft 364 kts 317°
2026-05-07 22:29 41.38186 -74.33618 21059 ft 363 kts 315°
2026-05-07 22:30 41.40130 -74.35718 21490 ft 354 kts 306°
2026-05-07 22:30 41.41719 -74.38193 21903 ft 345 kts 296°
2026-05-07 22:30 41.42389 -74.39565 22118 ft 342 kts 292°
2026-05-07 22:30 41.43597 -74.42311 22562 ft 343 kts 291°
2026-05-07 22:31 41.44787 -74.45091 22976 ft 344 kts 291°
2026-05-07 22:31 41.45989 -74.47900 23200 ft 351 kts 291°
2026-05-07 22:31 41.47221 -74.50780 23365 ft 359 kts 291°
2026-05-07 22:31 41.48482 -74.53706 23616 ft 364 kts 291°
2026-05-07 22:32 41.49754 -74.56647 23963 ft 366 kts 292°
2026-05-07 22:32 41.51036 -74.59603 24329 ft 368 kts 292°
2026-05-07 22:32 41.52320 -74.62567 24686 ft 369 kts 291°
2026-05-07 22:32 41.53603 -74.65546 25029 ft 370 kts 291°
2026-05-07 22:33 41.54886 -74.68536 25407 ft 371 kts 291°
2026-05-07 22:33 41.56173 -74.71541 25761 ft 372 kts 291°
2026-05-07 22:33 41.57464 -74.74555 26088 ft 374 kts 291°
2026-05-07 22:33 41.58764 -74.77592 26432 ft 375 kts 291°
2026-05-07 22:34 41.60067 -74.80626 26745 ft 376 kts 291°
2026-05-07 22:34 41.61375 -74.83674 27049 ft 378 kts 291°
2026-05-07 22:34 41.62694 -74.86744 27370 ft 379 kts 291°
2026-05-07 22:34 41.64013 -74.89824 27672 ft 380 kts 291°
2026-05-07 22:35 41.65332 -74.92907 27967 ft 381 kts 291°
2026-05-07 22:35 41.66655 -74.96014 28255 ft 383 kts 291°
2026-05-07 22:35 41.67981 -74.99124 28536 ft 384 kts 291°
2026-05-07 22:35 41.69311 -75.02248 28806 ft 385 kts 291°
2026-05-07 22:36 41.70639 -75.05377 29118 ft 386 kts 291°
2026-05-07 22:36 41.71969 -75.08505 29502 ft 384 kts 291°
2026-05-07 22:36 41.73292 -75.11621 29908 ft 382 kts 291°
2026-05-07 22:36 41.74606 -75.14722 30293 ft 380 kts 291°
2026-05-07 22:37 41.75918 -75.17817 30628 ft 379 kts 291°
2026-05-07 22:37 41.77215 -75.20894 30935 ft 378 kts 291°
2026-05-07 22:37 41.78513 -75.23972 31258 ft 377 kts 291°
2026-05-07 22:37 41.79812 -75.27055 31556 ft 377 kts 291°
2026-05-07 22:38 41.81102 -75.30120 31851 ft 376 kts 291°
2026-05-07 22:38 41.82400 -75.33204 32170 ft 376 kts 291°
2026-05-07 22:38 41.83685 -75.36264 32393 ft 377 kts 291°
2026-05-07 22:38 41.84980 -75.39358 32578 ft 378 kts 291°
2026-05-07 22:39 41.86280 -75.42461 32787 ft 379 kts 291°
2026-05-07 22:39 41.87579 -75.45566 32969 ft 380 kts 291°
2026-05-07 22:39 41.88887 -75.48697 33153 ft 381 kts 291°
2026-05-07 22:39 41.90189 -75.51815 33332 ft 382 kts 291°
2026-05-07 22:40 41.91489 -75.54936 33499 ft 383 kts 291°
2026-05-07 22:40 41.92801 -75.58081 33662 ft 385 kts 291°
2026-05-07 22:40 41.94119 -75.61241 33838 ft 386 kts 291°
2026-05-07 22:41 41.96767 -75.67587 33877 ft 386 kts 290°
2026-05-07 22:41 41.99396 -75.73923 33884 ft 387 kts 291°
2026-05-07 22:42 42.02030 -75.80283 33885 ft 387 kts 291°
2026-05-07 22:42 42.04654 -75.86636 33889 ft 387 kts 291°
2026-05-07 22:43 42.07277 -75.93001 33885 ft 388 kts 291°
2026-05-07 22:43 42.09909 -75.99398 33887 ft 389 kts 291°
2026-05-07 22:44 42.12439 -76.05834 33883 ft 384 kts 288°
2026-05-07 22:44 42.14439 -76.12508 33880 ft 385 kts 282°
2026-05-07 22:45 42.15882 -76.19471 33886 ft 384 kts 277°
2026-05-07 22:45 42.16745 -76.26584 33876 ft 382 kts 272°
2026-05-07 22:46 42.17317 -76.33718 33876 ft 381 kts 272°
2026-05-07 22:46 42.17874 -76.40852 33870 ft 382 kts 272°
2026-05-07 22:47 42.18421 -76.48014 33871 ft 383 kts 272°
2026-05-07 22:47 42.18958 -76.55157 33877 ft 383 kts 272°
2026-05-07 22:48 42.19487 -76.62311 33876 ft 382 kts 272°
2026-05-07 22:48 42.20015 -76.69470 33878 ft 382 kts 272°
2026-05-07 22:49 42.20539 -76.76635 33877 ft 382 kts 272°
2026-05-07 22:49 42.21061 -76.83803 33885 ft 383 kts 272°
2026-05-07 22:50 42.21577 -76.90997 33885 ft 383 kts 272°
2026-05-07 22:50 42.22090 -76.98201 33889 ft 383 kts 272°
2026-05-07 22:51 42.22591 -77.05346 33874 ft 382 kts 272°
2026-05-07 22:51 42.23090 -77.12516 33874 ft 382 kts 272°
2026-05-07 22:52 42.23583 -77.19687 33865 ft 383 kts 272°
2026-05-07 22:52 42.24071 -77.26863 33866 ft 384 kts 272°
2026-05-07 22:53 42.24554 -77.34046 33861 ft 383 kts 272°
2026-05-07 22:53 42.25032 -77.41259 33867 ft 384 kts 272°
2026-05-07 22:54 42.25550 -77.48462 33871 ft 384 kts 274°
2026-05-07 22:54 42.26470 -77.55617 33871 ft 387 kts 278°
2026-05-07 22:55 42.27722 -77.62705 33868 ft 387 kts 279°
2026-05-07 22:55 42.28986 -77.69771 33866 ft 388 kts 279°
2026-05-07 22:56 42.30261 -77.76896 33867 ft 389 kts 279°
2026-05-07 22:56 42.31535 -77.84038 33870 ft 389 kts 279°
2026-05-07 22:57 42.32808 -77.91176 33877 ft 389 kts 279°
2026-05-07 22:57 42.34071 -77.98301 33879 ft 388 kts 279°
2026-05-07 22:58 42.35334 -78.05449 33874 ft 390 kts 279°
2026-05-07 22:58 42.36594 -78.12614 33877 ft 390 kts 279°
2026-05-07 22:59 42.37847 -78.19759 33879 ft 390 kts 279°
2026-05-07 22:59 42.39099 -78.26920 33873 ft 390 kts 279°
2026-05-07 23:00 42.40345 -78.34091 33874 ft 391 kts 279°
2026-05-07 23:00 42.41590 -78.41274 33875 ft 391 kts 279°
2026-05-07 23:01 42.42827 -78.48465 33876 ft 391 kts 279°
2026-05-07 23:01 42.44058 -78.55658 33873 ft 392 kts 279°
2026-05-07 23:02 42.45286 -78.62864 33874 ft 390 kts 279°
2026-05-07 23:02 42.46422 -78.70071 33876 ft 389 kts 276°
2026-05-07 23:03 42.47103 -78.77366 33880 ft 388 kts 272°
2026-05-07 23:03 42.47396 -78.84679 33880 ft 387 kts 271°
2026-05-07 23:04 42.47650 -78.91982 33888 ft 387 kts 271°
2026-05-07 23:04 42.47893 -78.99316 33890 ft 388 kts 270°
2026-05-07 23:05 42.48130 -79.06618 33898 ft 388 kts 271°
2026-05-07 23:05 42.48357 -79.13934 33904 ft 388 kts 270°
2026-05-07 23:06 42.48580 -79.21260 33914 ft 388 kts 271°
2026-05-07 23:06 42.48799 -79.28599 33922 ft 388 kts 271°
2026-05-07 23:07 42.49015 -79.35923 33927 ft 388 kts 271°
2026-05-07 23:07 42.49224 -79.43266 33926 ft 388 kts 271°
2026-05-07 23:08 42.49428 -79.50579 33925 ft 387 kts 271°
2026-05-07 23:08 42.49629 -79.57879 33920 ft 386 kts 271°
2026-05-07 23:09 42.49825 -79.65196 33909 ft 388 kts 270°
2026-05-07 23:09 42.50015 -79.72558 33913 ft 388 kts 270°
2026-05-07 23:10 42.50201 -79.79905 33910 ft 388 kts 270°
2026-05-07 23:10 42.50381 -79.87242 33908 ft 389 kts 271°
2026-05-07 23:11 42.50559 -79.94603 33912 ft 389 kts 271°
2026-05-07 23:11 42.50731 -80.01960 33914 ft 388 kts 271°
2026-05-07 23:12 42.50900 -80.09307 33914 ft 388 kts 271°
2026-05-07 23:12 42.51062 -80.16678 33911 ft 389 kts 270°
2026-05-07 23:13 42.51218 -80.24068 33762 ft 390 kts 271°
2026-05-07 23:13 42.51296 -80.27754 33545 ft 389 kts 271°
2026-05-07 23:13 42.51371 -80.31440 33386 ft 388 kts 271°
2026-05-07 23:13 42.51445 -80.35077 33158 ft 378 kts 271°
2026-05-07 23:14 42.51515 -80.38615 32954 ft 370 kts 270°
2026-05-07 23:14 42.51584 -80.42097 32747 ft 368 kts 271°
2026-05-07 23:14 42.51647 -80.45576 32547 ft 368 kts 270°
2026-05-07 23:14 42.51710 -80.49048 32339 ft 367 kts 270°
2026-05-07 23:15 42.51774 -80.52537 32132 ft 367 kts 270°
2026-05-07 23:15 42.51838 -80.56024 31921 ft 368 kts 270°
2026-05-07 23:15 42.51900 -80.59524 31711 ft 370 kts 270°
2026-05-07 23:15 42.51959 -80.63016 31502 ft 370 kts 270°
2026-05-07 23:16 42.52006 -80.66518 31298 ft 370 kts 269°
2026-05-07 23:16 42.52047 -80.70034 31087 ft 370 kts 269°
2026-05-07 23:16 42.52084 -80.73531 30875 ft 370 kts 270°
2026-05-07 23:16 42.52119 -80.77008 30662 ft 370 kts 269°
2026-05-07 23:17 42.52154 -80.80511 30449 ft 371 kts 269°
2026-05-07 23:17 42.52189 -80.84038 30232 ft 372 kts 269°
2026-05-07 23:17 42.52220 -80.87553 30019 ft 372 kts 269°
2026-05-07 23:17 42.52251 -80.91082 29817 ft 373 kts 270°
2026-05-07 23:18 42.52282 -80.94624 29623 ft 374 kts 270°
2026-05-07 23:18 42.52323 -80.99759 29354 ft 376 kts 270°
2026-05-07 23:18 42.52350 -81.03322 29166 ft 378 kts 270°
2026-05-07 23:19 42.52375 -81.06901 28963 ft 379 kts 270°
2026-05-07 23:19 42.52399 -81.10296 28703 ft 381 kts 270°
2026-05-07 23:19 42.52421 -81.13905 28439 ft 381 kts 270°
2026-05-07 23:19 42.52444 -81.17519 28216 ft 384 kts 270°
2026-05-07 23:20 42.52464 -81.21154 27776 ft 383 kts 270°
2026-05-07 23:20 42.52481 -81.24761 27372 ft 380 kts 270°
2026-05-07 23:20 42.52499 -81.28343 26955 ft 374 kts 271°
2026-05-07 23:20 42.52518 -81.31826 26855 ft 359 kts 271°
2026-05-07 23:21 42.52519 -81.35177 26589 ft 351 kts 270°
2026-05-07 23:21 42.52410 -81.38506 26043 ft 351 kts 267°
2026-05-07 23:21 42.52190 -81.41808 25531 ft 350 kts 266°
2026-05-07 23:21 42.51949 -81.45103 24995 ft 350 kts 266°
2026-05-07 23:22 42.51705 -81.48388 24458 ft 348 kts 266°
2026-05-07 23:22 42.51461 -81.51655 23939 ft 345 kts 266°
2026-05-07 23:22 42.51218 -81.54891 23448 ft 342 kts 266°
2026-05-07 23:22 42.50976 -81.58113 22969 ft 339 kts 266°
2026-05-07 23:23 42.50735 -81.61290 22511 ft 335 kts 266°
2026-05-07 23:23 42.50495 -81.64443 22058 ft 332 kts 267°
2026-05-07 23:23 42.50257 -81.67526 21629 ft 328 kts 266°
2026-05-07 23:23 42.50023 -81.70575 21185 ft 326 kts 266°
2026-05-07 23:24 42.49787 -81.73635 20744 ft 324 kts 266°
2026-05-07 23:24 42.49552 -81.76690 20316 ft 321 kts 267°
2026-05-07 23:24 42.49320 -81.79711 19910 ft 318 kts 267°
2026-05-07 23:24 42.49092 -81.82688 19505 ft 315 kts 266°
2026-05-07 23:25 42.48865 -81.85633 19091 ft 313 kts 267°
2026-05-07 23:25 42.48633 -81.88686 18662 ft 338 kts 267°
2026-05-07 23:25 42.48386 -81.91903 18217 ft 349 kts 266°
2026-05-07 23:25 42.48125 -81.95274 17760 ft 365 kts 266°
2026-05-07 23:26 42.47852 -81.98720 17307 ft 365 kts 266°
2026-05-07 23:26 42.47579 -82.02139 16864 ft 363 kts 266°
2026-05-07 23:26 42.47306 -82.05541 16424 ft 360 kts 266°
2026-05-07 23:26 42.47034 -82.08953 15963 ft 367 kts 266°
2026-05-07 23:27 42.46477 -82.15811 15038 ft 362 kts 266°
2026-05-07 23:27 42.46201 -82.19197 14567 ft 359 kts 266°
2026-05-07 23:27 42.45926 -82.22548 14127 ft 356 kts 266°
2026-05-07 23:28 42.45653 -82.25879 13663 ft 354 kts 266°
2026-05-07 23:28 42.45381 -82.29192 13182 ft 352 kts 266°
2026-05-07 23:28 42.45101 -82.32497 12714 ft 350 kts 265°
2026-05-07 23:28 42.44731 -82.35768 12243 ft 348 kts 264°
2026-05-07 23:29 42.44343 -82.39012 11765 ft 347 kts 263°
2026-05-07 23:29 42.43986 -82.41967 11340 ft 345 kts 264°
2026-05-07 23:29 42.43596 -82.45167 10862 ft 343 kts 264°
2026-05-07 23:29 42.43206 -82.48367 10396 ft 341 kts 263°
2026-05-07 23:30 42.42819 -82.51531 10073 ft 340 kts 264°
2026-05-07 23:30 42.42431 -82.54698 10002 ft 339 kts 264°
2026-05-07 23:30 42.42053 -82.57778 9798 ft 325 kts 264°
2026-05-07 23:30 42.41684 -82.60794 9338 ft 318 kts 264°
2026-05-07 23:31 42.41326 -82.63723 8926 ft 311 kts 263°
2026-05-07 23:31 42.40974 -82.66587 8517 ft 305 kts 263°
2026-05-07 23:31 42.40631 -82.69366 8095 ft 290 kts 263°
2026-05-07 23:31 42.40306 -82.71981 7741 ft 270 kts 263°
2026-05-07 23:32 42.40002 -82.74442 7424 ft 262 kts 263°
2026-05-07 23:32 42.39805 -82.76874 7080 ft 255 kts 274°
2026-05-07 23:32 42.40123 -82.79182 6946 ft 245 kts 283°
2026-05-07 23:32 42.40362 -82.81509 6970 ft 249 kts 275°
2026-05-07 23:33 42.40444 -82.83861 6881 ft 250 kts 273°
2026-05-07 23:33 42.40505 -82.86217 6651 ft 249 kts 272°
2026-05-07 23:33 42.40566 -82.88574 6421 ft 248 kts 272°
2026-05-07 23:33 42.40630 -82.90884 6190 ft 241 kts 272°
2026-05-07 23:34 42.40693 -82.93124 5958 ft 234 kts 272°
2026-05-07 23:34 42.40754 -82.95314 5726 ft 228 kts 272°
2026-05-07 23:34 42.40811 -82.97431 5498 ft 222 kts 273°
2026-05-07 23:34 42.40862 -82.99502 5267 ft 217 kts 272°
2026-05-07 23:35 42.40911 -83.01522 5038 ft 213 kts 273°
2026-05-07 23:35 42.40938 -83.03537 4808 ft 214 kts 267°
2026-05-07 23:35 42.40619 -83.05524 4566 ft 216 kts 255°
2026-05-07 23:35 42.40129 -83.07468 4286 ft 216 kts 253°
2026-05-07 23:36 42.39623 -83.09378 4045 ft 214 kts 253°
2026-05-07 23:36 42.39114 -83.11289 3958 ft 216 kts 253°
2026-05-07 23:36 42.38600 -83.13204 3724 ft 215 kts 253°
2026-05-07 23:36 42.38088 -83.15103 3496 ft 214 kts 253°
2026-05-07 23:37 42.37581 -83.16994 3266 ft 212 kts 253°
2026-05-07 23:37 42.37083 -83.18850 3052 ft 206 kts 253°
2026-05-07 23:37 42.36422 -83.20559 3005 ft 208 kts 233°
2026-05-07 23:37 42.35384 -83.21918 3005 ft 206 kts 226°
2026-05-07 23:38 42.34315 -83.23214 3002 ft 206 kts 227°
2026-05-07 23:38 42.33265 -83.24546 2998 ft 206 kts 226°
2026-05-07 23:38 42.32134 -83.25754 2917 ft 204 kts 219°
2026-05-07 23:38 42.30956 -83.26773 2694 ft 196 kts 215°
2026-05-07 23:39 42.29785 -83.27665 2422 ft 184 kts 214°
2026-05-07 23:39 42.28693 -83.28456 2191 ft 170 kts 213°
2026-05-07 23:39 42.27697 -83.29178 1936 ft 153 kts 214°
2026-05-07 23:39 42.26810 -83.29828 1714 ft 140 kts 215°
2026-05-07 23:40 42.25956 -83.30462 1535 ft 139 kts 215°
2026-05-07 23:40 42.25104 -83.31093 1356 ft 139 kts 214°
2026-05-07 23:40 42.24250 -83.31720 1176 ft 139 kts 214°
2026-05-07 23:40 42.23400 -83.32348 1004 ft 138 kts 214°
2026-05-07 23:41 42.22548 -83.32978 812 ft 140 kts 213°
2026-05-07 23:41 42.21687 -83.33610 645 ft 137 kts 213°
2026-05-07 23:41 42.20927 -83.34182 637 ft 107 kts 207°
2026-05-07 23:41 42.20378 -83.34579 637 ft 70 kts 210°
2026-05-07 23:42 42.20170 -83.34799 637 ft 14 kts 235°
2026-05-07 23:42 42.20180 -83.34890 637 ft 7 kts 281°
2026-05-07 23:42 42.20181 -83.34896 637 ft 0 kts 277°
2026-05-07 23:43 42.20182 -83.34903 637 ft 2 kts 276°
2026-05-07 23:43 42.20183 -83.34931 637 ft 6 kts 272°
2026-05-07 23:43 42.20181 -83.35036 638 ft 15 kts 268°
2026-05-07 23:43 42.20176 -83.35207 638 ft 19 kts 268°
2026-05-07 23:44 42.20176 -83.35388 639 ft 19 kts 268°
2026-05-07 23:44 42.20172 -83.35566 640 ft 18 kts 271°
2026-05-07 23:44 42.20166 -83.35738 641 ft 18 kts 270°
2026-05-07 23:44 42.20165 -83.35909 641 ft 18 kts 269°
2026-05-07 23:45 42.20162 -83.36082 641 ft 18 kts 269°
2026-05-07 23:45 42.20175 -83.36255 641 ft 18 kts 283°
2026-05-07 23:45 42.20212 -83.36390 642 ft 13 kts 327°
2026-05-07 23:45 42.20306 -83.36384 642 ft 13 kts 19°
2026-05-07 23:46 42.20395 -83.36318 642 ft 15 kts 29°
2026-05-07 23:46 42.20492 -83.36248 642 ft 14 kts 29°
2026-05-07 23:46 42.20507 -83.36207 642 ft 1 kts 113°
2026-05-07 23:46 42.20499 -83.36180 642 ft 4 kts 115°
2026-05-07 23:47 42.20485 -83.36143 642 ft 3 kts 119°
2026-05-07 23:47 42.20481 -83.36134 642 ft 1 kts 118°
2026-05-07 23:47 42.20480 -83.36132 642 ft 0 kts 118°